Terug naar catalogus

STARLINK-35131

ActiefCommunicatieVLEO
NORAD 66075·PAYLOAD·🇺🇸 United States

Gelanceerd Oct 19, 2025 vanaf Cape Canaveral Space Force Station

Loading…

Volgende Passages (komende 24 uur)

TLE

VersSource: CelesTrak SupGP

Epoch: Sep 15, 2026, 03:52 UTC

1 66075C 25235T   26258.16159722 -.00026967  00000+0 -79681-3 0  2580
2 66075  53.1577  82.4718 0000816  99.6282  85.7048 15.34401566    13

Volg STARLINK-35131 in realtime met AllMySat

Download on the App Store